Merrill, WI

11:18 PM CST on February 12, 2016 (GMT -0600)
Merrill Municipal

Weather History for KRRL - February, 2013

Change the Weather History Date:

Wednesday, February 6, 2013

  Actual Average (KAUW) Record (KAUW)
Temperature  
Mean Temperature 4 °F 17 °F  
Max Temperature 21 °F 26 °F 43 °F (1998)
Min Temperature -13 °F 8 °F -28 °F (1899)
Degree Days  
Heating Degree Days 61 48  
Month to date heating degree days 293  
Since 1 July heating degree days 5143  
Cooling Degree Days 0 0  
Month to date cooling degree days 0  
Year to date cooling degree days 0  
Moisture  
Dew Point 5 °F    
Average Humidity 85    
Maximum Humidity 93    
Minimum Humidity 68    
Precipitation  
Precipitation 0.00 in 0.03 in 0.60 in (1951)
Month to date precipitation 0.18  
Year to date precipitation 1.20  
Snow  
Snow 0.00 in 0.30 in 5.90 in (1951)
Month to date snowfall 2.2  
Since 1 July snowfall 37.9  
Snow Depth -    
Sea Level Pressure  
Sea Level Pressure 30.08 in    
Wind  
Wind Speed 1 mph (SE)    
Max Wind Speed 10 mph    
Max Gust Speed 16 mph    
Visibility 6 miles    
Events Fog , Snow    
T = Trace of Precipitation, MM = Missing Value Source: NWS Daily Summary

Daily Weather History Graph

Daily Weather History Graph

Search for Another Location

Airport or City:

Trip Planner

Search our weather history database for the weather conditions in past years. The results will help you decide how hot, cold, wet, or windy it might be!

Date:

Astronomy

Feb. 06, 2013 Rise Set
Actual Time 7:12 AM CST 5:13 PM CST
Civil Twilight 6:41 AM CST 5:44 PM CST
Nautical Twilight 6:06 AM CST 6:19 PM CST
Astronomical Twilight 5:32 AM CST 6:54 PM CST
Moon 4:01 AM CST (2/6) 1:26 PM CST (2/6)
Length of Visible Light 11h 03m
Length of Day
10h 01m
Waning Crescent, 17% of the Moon is Illuminated
Feb 6
Waning Crescent
Feb 10
New
Feb 17
First Quarter
Feb 25
Full
Mar 4
Last Quarter

Hourly Weather History & Observations

Time (CST) Temp. Windchill Dew Point Humidity Pressure Visibility Wind Dir Wind Speed Gust Speed Precip Events Conditions
12:15 AM -7.6 °F - -13.0 °F 77% 30.05 in 10.0 mi Calm Calm - N/A   Clear
12:35 AM -7.6 °F - -13.0 °F 77% 30.04 in 10.0 mi Calm Calm - N/A   Clear
12:55 AM -9.4 °F - -13.0 °F 84% 30.05 in 10.0 mi Calm Calm - N/A   Clear
1:35 AM -9.4 °F - -14.8 °F 77% 30.05 in 10.0 mi Calm Calm - N/A   Clear
1:55 AM -9.4 °F - -14.8 °F 77% 30.07 in 10.0 mi Calm Calm - N/A   Clear
2:15 AM -9.4 °F - -14.8 °F 77% 30.07 in 10.0 mi Calm Calm - N/A   Clear
2:35 AM -9.4 °F - -14.8 °F 77% 30.07 in 10.0 mi Calm Calm - N/A   Scattered Clouds
2:55 AM -9.4 °F - -14.8 °F 77% 30.07 in 10.0 mi Calm Calm - N/A   Scattered Clouds
3:15 AM -11.2 °F - -14.8 °F 84% 30.07 in 10.0 mi Calm Calm - N/A   Scattered Clouds
4:15 AM -11.2 °F - -16.6 °F 77% 30.08 in 10.0 mi Calm Calm - N/A   Clear
4:35 AM -13.0 °F - -16.6 °F 84% 30.09 in 10.0 mi Calm Calm - N/A   Clear
4:55 AM -13.0 °F - -18.4 °F 77% 30.09 in 10.0 mi Calm Calm - N/A   Clear
5:15 AM -13.0 °F - -16.6 °F 84% 30.09 in 10.0 mi Calm Calm - N/A   Mostly Cloudy
5:35 AM -13.0 °F - -16.6 °F 84% 30.09 in 10.0 mi Calm Calm - N/A   Overcast
5:55 AM -13.0 °F - -16.6 °F 84% 30.09 in 10.0 mi Calm Calm - N/A   Overcast
6:15 AM -13.0 °F - -16.6 °F 84% 30.09 in 10.0 mi Calm Calm - N/A   Overcast
6:35 AM -13.0 °F - -18.4 °F 77% 30.10 in 10.0 mi Calm Calm - N/A   Overcast
6:55 AM -13.0 °F - -18.4 °F 77% 30.10 in 10.0 mi Calm Calm - N/A   Overcast
7:35 AM -13.0 °F - -16.6 °F 84% 30.10 in 1.8 mi Calm Calm - N/A   Overcast
7:55 AM -11.2 °F - -14.8 °F 84% 30.12 in 0.2 mi Calm Calm - N/A Fog Light Freezing Fog
8:15 AM -7.6 °F - -13.0 °F 77% 30.13 in 0.2 mi Calm Calm - N/A Fog Light Freezing Fog
8:35 AM -7.6 °F - -13.0 °F 77% 30.14 in 0.2 mi Calm Calm - N/A   Haze
8:55 AM -5.8 °F - -9.4 °F 84% 30.14 in 4.0 mi Calm Calm - N/A   Haze
9:15 AM -2.2 °F - -5.8 °F 85% 30.13 in 5.0 mi Calm Calm - N/A   Scattered Clouds
9:35 AM 1.4 °F - -4.0 °F 78% 30.14 in 4.0 mi Calm Calm - N/A   Clear
9:55 AM 5.0 °F - 1.4 °F 85% 30.13 in 5.0 mi Calm Calm - N/A   Scattered Clouds
10:15 AM 8.6 °F - 5.0 °F 85% 30.14 in 7.0 mi Calm Calm - N/A   Mostly Cloudy
10:35 AM 10.4 °F - 8.6 °F 92% 30.14 in 7.0 mi Calm Calm - N/A   Scattered Clouds
10:55 AM 12.2 °F - 10.4 °F 92% 30.13 in 7.0 mi Calm Calm - N/A   Mostly Cloudy
11:15 AM 14.0 °F - 12.2 °F 93% 30.13 in 10.0 mi Calm Calm - N/A   Mostly Cloudy
11:35 AM 17.6 °F - 12.2 °F 79% 30.13 in 10.0 mi Calm Calm - N/A   Mostly Cloudy
11:55 AM 19.4 °F - 12.2 °F 74% 30.12 in 10.0 mi Calm Calm - N/A   Mostly Cloudy
12:15 PM 19.4 °F - 12.2 °F 74% 30.11 in 10.0 mi Calm Calm - N/A   Overcast
12:35 PM 21.2 °F 13.6 °F 12.2 °F 68% 30.11 in 10.0 mi South 5.8 mph - N/A   Overcast
12:55 PM 21.2 °F 14.9 °F 12.2 °F 68% 30.12 in 10.0 mi South 4.6 mph - N/A   Overcast
1:15 PM 21.2 °F 16.4 °F 14.0 °F 74% 30.11 in 0.5 mi South 3.5 mph - N/A Snow Light Snow
1:35 PM 19.4 °F - 15.8 °F 86% 30.10 in 0.8 mi Calm Calm - N/A Snow Snow
1:55 PM 19.4 °F 14.3 °F 17.6 °F 93% 30.09 in 1.0 mi SSE 3.5 mph - N/A Snow Light Snow
2:15 PM 21.2 °F - 17.6 °F 86% 30.08 in 1.0 mi Calm Calm - N/A Snow Light Snow
2:35 PM 21.2 °F 14.9 °F 17.6 °F 86% 30.08 in 0.8 mi SSE 4.6 mph - N/A Snow Light Snow
2:55 PM 21.2 °F - 17.6 °F 86% 30.08 in 0.5 mi Calm Calm - N/A Snow Light Snow
3:15 PM 21.2 °F 16.4 °F 19.4 °F 93% 30.08 in 0.8 mi SE 3.5 mph - N/A Snow Light Snow
3:35 PM 21.2 °F 16.4 °F 19.4 °F 93% 30.07 in 0.5 mi SE 3.5 mph - N/A Snow Light Snow
3:55 PM 21.2 °F 12.6 °F 19.4 °F 93% 30.06 in 0.2 mi ESE 6.9 mph - N/A Snow Snow
4:15 PM 21.2 °F 16.4 °F 19.4 °F 93% 30.07 in 1.2 mi SE 3.5 mph - N/A Snow Light Snow
4:35 PM 21.2 °F 13.6 °F 19.4 °F 93% 30.05 in 1.5 mi SE 5.8 mph - N/A Snow Light Snow
4:55 PM 21.2 °F 11.7 °F 19.4 °F 93% 30.05 in 5.0 mi SE 8.1 mph - N/A   Overcast
5:15 PM 21.2 °F 13.6 °F 19.4 °F 93% 30.06 in 4.0 mi SE 5.8 mph - N/A Snow Light Snow
5:35 PM 21.2 °F 11.7 °F 19.4 °F 93% 30.05 in 5.0 mi SE 8.1 mph - N/A Snow Light Snow
5:55 PM 21.2 °F 10.1 °F 19.4 °F 93% 30.04 in 7.0 mi SE 10.4 mph - N/A Snow Light Snow
6:15 PM 21.2 °F 10.9 °F 17.6 °F 86% 30.04 in 10.0 mi SSE 9.2 mph 16.1 mph N/A   Overcast
6:35 PM 21.2 °F 12.6 °F 17.6 °F 86% 30.05 in 10.0 mi SE 6.9 mph - N/A   Overcast
6:55 PM 21.2 °F 13.6 °F 17.6 °F 86% 30.05 in 10.0 mi ESE 5.8 mph - N/A   Overcast
7:15 PM 21.2 °F 11.7 °F 17.6 °F 86% 30.05 in 10.0 mi SE 8.1 mph - N/A   Overcast
7:35 PM 21.2 °F 11.7 °F 17.6 °F 86% 30.05 in 10.0 mi SE 8.1 mph - N/A   Overcast
7:55 PM 21.2 °F 13.6 °F 17.6 °F 86% 30.05 in 10.0 mi ESE 5.8 mph - N/A   Overcast
8:15 PM 21.2 °F 14.9 °F 17.6 °F 86% 30.06 in 10.0 mi ESE 4.6 mph - N/A   Overcast
8:35 PM 21.2 °F 13.6 °F 17.6 °F 86% 30.06 in 10.0 mi SE 5.8 mph - N/A   Overcast
8:55 PM 21.2 °F 13.6 °F 17.6 °F 86% 30.06 in 7.0 mi SSE 5.8 mph - N/A   Overcast
9:15 PM 21.2 °F 13.6 °F 17.6 °F 86% 30.06 in 5.0 mi SE 5.8 mph - N/A   Overcast
9:35 PM 21.2 °F 16.4 °F 17.6 °F 86% 30.06 in 5.0 mi SE 3.5 mph - N/A   Overcast
9:55 PM 21.2 °F 14.9 °F 19.4 °F 93% 30.06 in 4.0 mi SE 4.6 mph - N/A   Overcast
10:15 PM 21.2 °F - 19.4 °F 93% 30.06 in 4.0 mi Calm Calm - N/A   Overcast
10:35 PM 21.2 °F - 19.4 °F 93% 30.06 in 4.0 mi Calm Calm - N/A   Overcast
10:55 PM 21.2 °F 14.9 °F 19.4 °F 93% 30.05 in 4.0 mi SE 4.6 mph - N/A   Overcast
11:15 PM 21.2 °F - 19.4 °F 93% 30.05 in 4.0 mi Calm Calm - N/A   Overcast
11:35 PM 21.2 °F - 19.4 °F 93% 30.05 in 3.0 mi Calm Calm - N/A   Overcast
11:55 PM 21.2 °F 14.9 °F 19.4 °F 93% 30.05 in 3.0 mi SE 4.6 mph - N/A   Overcast